| time (UTC) | temp F | wind direction | speed MPH | gust MPH | rain 1hr in | rain 24hr in | rain mn in | humidity % | barometer mb |
| 20260507003516 | 49 | 158 | 1.0 | 4.0 | 0.00 | 0.00 | 0.00 | 84 | 1016.7 |
| 20260507003016 | 49 | 225 | 1.0 | 5.0 | 0.00 | 0.00 | 0.00 | 84 | 1016.8 |
| 20260507002516 | 49 | 158 | 1.0 | 4.0 | 0.00 | 0.00 | 0.00 | 84 | 1016.7 |
| 20260507002016 | 49 | 158 | 1.0 | 3.0 | 0.00 | 0.00 | 0.00 | 83 | 1016.8 |
| 20260507001516 | 49 | 135 | 1.0 | 2.0 | 0.00 | 0.00 | 0.00 | 83 | 1016.7 |
| 20260507001016 | 49 | 135 | 1.0 | 6.0 | 0.00 | 0.00 | 0.00 | 83 | 1016.7 |
| 20260507000516 | 49 | 135 | 1.0 | 4.0 | 0.00 | 0.00 | 0.00 | 83 | 1016.7 |
| 20260507000016 | 49 | 135 | 1.0 | 4.0 | 0.00 | 0.00 | 0.00 | 83 | 1016.6 |
| 20260506235516 | 49 | 158 | 1.0 | 5.0 | 0.00 | 0.00 | 0.00 | 82 | 1016.6 |
| 20260506235016 | 49 | 135 | 1.0 | 3.0 | 0.00 | 0.00 | 0.00 | 82 | 1016.5 |
| 20260506234516 | 50 | 135 | 2.0 | 4.0 | 0.00 | 0.00 | 0.00 | 81 | 1016.5 |
| 20260506234016 | 50 | 135 | 1.0 | 5.0 | 0.00 | 0.00 | 0.00 | 81 | 1016.5 |
| 20260506233516 | 50 | 135 | 2.0 | 4.0 | 0.00 | 0.00 | 0.00 | 81 | 1016.5 |
| 20260506233017 | 50 | 135 | 2.0 | 5.0 | 0.00 | 0.00 | 0.00 | 81 | 1016.6 |
| 20260506232516 | 50 | 135 | 2.0 | 7.0 | 0.00 | 0.00 | 0.00 | 81 | 1016.6 |
| 20260506232016 | 51 | 158 | 2.0 | 5.0 | 0.00 | 0.00 | 0.00 | 80 | 1016.6 |
| 20260506231516 | 51 | 135 | 1.0 | 3.0 | 0.00 | 0.00 | 0.00 | 80 | 1016.7 |
| 20260506231016 | 51 | 135 | 2.0 | 7.0 | 0.00 | 0.00 | 0.00 | 79 | 1016.6 |
| 20260506230516 | 52 | 135 | 2.0 | 5.0 | 0.00 | 0.00 | 0.00 | 79 | 1016.7 |
| 20260506230017 | 52 | 135 | 2.0 | 5.0 | 0.00 | 0.00 | 0.00 | 79 | 1016.6 |
| 20260506225516 | 52 | 158 | 2.0 | 5.0 | 0.00 | 0.00 | 0.00 | 79 | 1016.6 |
| 20260506225016 | 52 | 135 | 2.0 | 5.0 | 0.00 | 0.00 | 0.00 | 78 | 1016.7 |
| 20260506224517 | 53 | 135 | 2.0 | 6.0 | 0.00 | 0.00 | 0.00 | 78 | 1016.7 |
| 20260506224016 | 53 | 158 | 1.0 | 4.0 | 0.00 | 0.00 | 0.00 | 78 | 1016.7 |
| 20260506223516 | 53 | 135 | 2.0 | 6.0 | 0.00 | 0.00 | 0.00 | 78 | 1016.8 |
| 20260506223016 | 53 | 158 | 2.0 | 8.0 | 0.00 | 0.00 | 0.00 | 78 | 1016.9 |
| 20260506222516 | 53 | 180 | 2.0 | 7.0 | 0.00 | 0.00 | 0.00 | 78 | 1016.9 |
| 20260506222016 | 53 | 135 | 2.0 | 4.0 | 0.00 | 0.00 | 0.00 | 78 | 1016.7 |
| 20260506221516 | 54 | 135 | 2.0 | 5.0 | 0.00 | 0.00 | 0.00 | 78 | 1016.8 |
| 20260506221016 | 54 | 135 | 2.0 | 7.0 | 0.00 | 0.00 | 0.00 | 78 | 1016.7 |
| 20260506220516 | 54 | 135 | 2.0 | 6.0 | 0.00 | 0.00 | 0.00 | 78 | 1016.6 |
| 20260506220016 | 54 | 158 | 3.0 | 7.0 | 0.00 | 0.00 | 0.00 | 77 | 1016.7 |
| 20260506215516 | 54 | 158 | 3.0 | 10.0 | 0.00 | 0.00 | 0.00 | 77 | 1016.7 |
| 20260506215016 | 54 | 135 | 2.0 | 6.0 | 0.00 | 0.00 | 0.00 | 77 | 1016.8 |
| 20260506214516 | 55 | 135 | 3.0 | 8.0 | 0.00 | 0.00 | 0.00 | 76 | 1016.7 |
| 20260506214016 | 55 | 113 | 2.0 | 5.0 | 0.00 | 0.00 | 0.00 | 76 | 1016.7 |
| 20260506213516 | 55 | 158 | 2.0 | 7.0 | 0.00 | 0.00 | 0.00 | 75 | 1016.6 |
| 20260506213016 | 56 | 135 | 3.0 | 8.0 | 0.00 | 0.00 | 0.00 | 75 | 1016.6 |
| 20260506212516 | 57 | 158 | 3.0 | 6.0 | 0.00 | 0.00 | 0.00 | 75 | 1016.6 |
| 20260506212016 | 57 | 225 | 3.0 | 9.0 | 0.00 | 0.00 | 0.00 | 75 | 1016.6 |
| 20260506211516 | 58 | 135 | 3.0 | 8.0 | 0.00 | 0.00 | 0.00 | 74 | 1016.5 |
| 20260506211016 | 58 | 158 | 3.0 | 8.0 | 0.00 | 0.00 | 0.00 | 74 | 1016.3 |
| 20260506210516 | 58 | 135 | 4.0 | 12.0 | 0.00 | 0.00 | 0.00 | 74 | 1016.3 |
| 20260506210016 | 59 | 135 | 4.0 | 13.0 | 0.00 | 0.00 | 0.00 | 74 | 1016.3 |
| 20260506205516 | 59 | 158 | 4.0 | 12.0 | 0.00 | 0.00 | 0.00 | 73 | 1016.4 |
| 20260506205016 | 60 | 135 | 3.0 | 13.0 | 0.00 | 0.00 | 0.00 | 73 | 1016.5 |
| 20260506204516 | 60 | 158 | 3.0 | 8.0 | 0.00 | 0.00 | 0.00 | 72 | 1016.5 |
| 20260506204016 | 61 | 135 | 4.0 | 10.0 | 0.00 | 0.00 | 0.00 | 72 | 1016.5 |
| 20260506203516 | 61 | 158 | 4.0 | 12.0 | 0.00 | 0.00 | 0.00 | 71 | 1016.6 |
| 20260506203016 | 62 | 113 | 4.0 | 10.0 | 0.00 | 0.00 | 0.00 | 71 | 1016.6 |
| 20260506202516 | 62 | 158 | 4.0 | 17.0 | 0.00 | 0.00 | 0.00 | 71 | 1016.5 |
| 20260506202016 | 63 | 203 | 4.0 | 12.0 | 0.00 | 0.00 | 0.00 | 71 | 1016.6 |
| 20260506201516 | 62 | 225 | 5.0 | 17.0 | 0.00 | 0.00 | 0.00 | 72 | 1016.7 |
| 20260506201016 | 62 | 158 | 3.0 | 10.0 | 0.00 | 0.00 | 0.00 | 72 | 1016.7 |
| 20260506200516 | 62 | 135 | 4.0 | 12.0 | 0.00 | 0.00 | 0.00 | 72 | 1016.7 |
| 20260506200016 | 62 | 203 | 3.0 | 9.0 | 0.00 | 0.00 | 0.00 | 71 | 1016.8 |
| 20260506195516 | 62 | 225 | 4.0 | 10.0 | 0.00 | 0.00 | 0.00 | 71 | 1016.8 |
| 20260506195016 | 62 | 135 | 3.0 | 8.0 | 0.00 | 0.00 | 0.00 | 70 | 1016.9 |
| 20260506194516 | 62 | 135 | 3.0 | 8.0 | 0.00 | 0.00 | 0.00 | 71 | 1016.8 |
| 20260506194016 | 62 | 135 | 3.0 | 9.0 | 0.00 | 0.00 | 0.00 | 72 | 1017.0 |
| 20260506193516 | 62 | 180 | 5.0 | 12.0 | 0.00 | 0.00 | 0.00 | 71 | 1017.0 |
| 20260506193016 | 62 | 203 | 3.0 | 8.0 | 0.00 | 0.00 | 0.00 | 72 | 1017.1 |
| 20260506192516 | 62 | 158 | 4.0 | 8.0 | 0.00 | 0.00 | 0.00 | 72 | 1017.2 |
| 20260506192016 | 61 | 158 | 5.0 | 17.0 | 0.00 | 0.00 | 0.00 | 73 | 1017.4 |
| 20260506191516 | 61 | 225 | 5.0 | 11.0 | 0.00 | 0.00 | 0.00 | 72 | 1017.3 |
| 20260506191016 | 62 | 158 | 4.0 | 10.0 | 0.00 | 0.00 | 0.00 | 72 | 1017.3 |
| 20260506190516 | 62 | 135 | 5.0 | 18.0 | 0.00 | 0.00 | 0.00 | 72 | 1017.3 |
| 20260506190016 | 62 | 158 | 4.0 | 14.0 | 0.00 | 0.00 | 0.00 | 72 | 1017.3 |
| 20260506185516 | 62 | 135 | 4.0 | 15.0 | 0.00 | 0.00 | 0.00 | 73 | 1017.5 |
| 20260506185016 | 62 | 135 | 4.0 | 10.0 | 0.00 | 0.00 | 0.00 | 72 | 1017.5 |
| 20260506184516 | 62 | 158 | 4.0 | 12.0 | 0.00 | 0.00 | 0.00 | 72 | 1017.5 |
| 20260506184016 | 62 | 158 | 4.0 | 11.0 | 0.00 | 0.00 | 0.00 | 71 | 1017.4 |
| 20260506183516 | 62 | 135 | 4.0 | 13.0 | 0.00 | 0.00 | 0.00 | 72 | 1017.6 |
| 20260506183016 | 63 | 158 | 4.0 | 10.0 | 0.00 | 0.00 | 0.00 | 72 | 1017.7 |
| 20260506182516 | 63 | 113 | 4.0 | 10.0 | 0.00 | 0.00 | 0.00 | 72 | 1017.7 |
| 20260506182016 | 62 | 158 | 4.0 | 15.0 | 0.00 | 0.00 | 0.00 | 72 | 1017.7 |
| 20260506181516 | 62 | 135 | 4.0 | 13.0 | 0.00 | 0.00 | 0.00 | 72 | 1017.8 |
| 20260506181016 | 63 | 180 | 4.0 | 10.0 | 0.00 | 0.00 | 0.00 | 72 | 1017.9 |
| 20260506180516 | 63 | 158 | 3.0 | 7.0 | 0.00 | 0.00 | 0.00 | 72 | 1017.9 |
| 20260506180016 | 62 | 113 | 4.0 | 9.0 | 0.00 | 0.00 | 0.00 | 73 | 1018.0 |
| 20260506175516 | 62 | 158 | 3.0 | 11.0 | 0.00 | 0.00 | 0.00 | 74 | 1018.0 |
| 20260506175016 | 61 | 158 | 4.0 | 8.0 | 0.00 | 0.00 | 0.00 | 73 | 1018.1 |
| 20260506174516 | 62 | 135 | 5.0 | 16.0 | 0.00 | 0.00 | 0.00 | 74 | 1018.1 |
| 20260506174016 | 62 | 180 | 5.0 | 10.0 | 0.00 | 0.00 | 0.00 | 74 | 1018.2 |
| 20260506173516 | 61 | 203 | 4.0 | 9.0 | 0.00 | 0.00 | 0.00 | 74 | 1018.1 |
| 20260506173016 | 61 | 158 | 4.0 | 10.0 | 0.00 | 0.00 | 0.00 | 74 | 1018.1 |
| 20260506172516 | 61 | 158 | 4.0 | 12.0 | 0.00 | 0.00 | 0.00 | 74 | 1018.1 |
| 20260506172016 | 61 | 135 | 3.0 | 9.0 | 0.00 | 0.00 | 0.00 | 75 | 1018.0 |
| 20260506171516 | 61 | 158 | 4.0 | 11.0 | 0.00 | 0.00 | 0.00 | 75 | 1018.0 |
| 20260506171017 | 60 | 158 | 4.0 | 10.0 | 0.00 | 0.00 | 0.00 | 75 | 1018.0 |
| 20260506170516 | 61 | 135 | 3.0 | 10.0 | 0.00 | 0.00 | 0.00 | 75 | 1018.1 |
| 20260506170016 | 61 | 180 | 4.0 | 8.0 | 0.00 | 0.00 | 0.00 | 75 | 1018.2 |
| 20260506165516 | 60 | 135 | 4.0 | 13.0 | 0.00 | 0.00 | 0.00 | 74 | 1018.1 |
| 20260506165016 | 61 | 158 | 3.0 | 12.0 | 0.00 | 0.00 | 0.00 | 73 | 1018.2 |
| 20260506164516 | 61 | 158 | 4.0 | 12.0 | 0.00 | 0.00 | 0.00 | 74 | 1018.3 |
| 20260506164016 | 62 | 158 | 4.0 | 11.0 | 0.00 | 0.00 | 0.00 | 74 | 1018.2 |
| 20260506163516 | 62 | 135 | 4.0 | 10.0 | 0.00 | 0.00 | 0.00 | 74 | 1018.3 |
| 20260506163016 | 62 | 158 | 4.0 | 11.0 | 0.00 | 0.00 | 0.00 | 74 | 1018.3 |
| 20260506162516 | 62 | 158 | 4.0 | 11.0 | 0.00 | 0.00 | 0.00 | 75 | 1018.2 |
| 20260506162016 | 62 | 135 | 5.0 | 11.0 | 0.00 | 0.00 | 0.00 | 75 | 1018.2 |
| 20260506161516 | 62 | 135 | 3.0 | 10.0 | 0.00 | 0.00 | 0.00 | 75 | 1018.3 |
| 20260506161016 | 62 | 180 | 3.0 | 9.0 | 0.00 | 0.00 | 0.00 | 75 | 1018.4 |
| 20260506160516 | 62 | 158 | 4.0 | 12.0 | 0.00 | 0.00 | 0.00 | 74 | 1018.4 |
| 20260506160016 | 62 | 135 | 3.0 | 8.0 | 0.00 | 0.00 | 0.00 | 74 | 1018.4 |
| 20260506155516 | 62 | 225 | 4.0 | 7.0 | 0.00 | 0.00 | 0.00 | 74 | 1018.5 |
| 20260506155016 | 62 | 135 | 5.0 | 13.0 | 0.00 | 0.00 | 0.00 | 74 | 1018.5 |
| 20260506154516 | 62 | 158 | 4.0 | 9.0 | 0.00 | 0.00 | 0.00 | 74 | 1018.4 |
| 20260506154016 | 62 | 158 | 4.0 | 14.0 | 0.00 | 0.00 | 0.00 | 74 | 1018.5 |
| 20260506153516 | 62 | 180 | 3.0 | 9.0 | 0.00 | 0.00 | 0.00 | 74 | 1018.7 |
| 20260506153016 | 62 | 158 | 4.0 | 11.0 | 0.00 | 0.00 | 0.00 | 74 | 1018.5 |
| 20260506152516 | 62 | 158 | 3.0 | 6.0 | 0.00 | 0.00 | 0.00 | 75 | 1018.6 |
| 20260506152017 | 61 | 180 | 3.0 | 10.0 | 0.00 | 0.00 | 0.00 | 77 | 1018.8 |
| 20260506151516 | 60 | 135 | 4.0 | 9.0 | 0.00 | 0.00 | 0.00 | 77 | 1018.9 |
| 20260506151016 | 60 | 225 | 5.0 | 16.0 | 0.00 | 0.00 | 0.00 | 78 | 1018.8 |
| 20260506150516 | 60 | 225 | 4.0 | 11.0 | 0.00 | 0.00 | 0.00 | 77 | 1018.8 |
| 20260506150016 | 59 | 203 | 4.0 | 12.0 | 0.00 | 0.00 | 0.00 | 78 | 1018.9 |
| 20260506145516 | 59 | 158 | 4.0 | 9.0 | 0.00 | 0.00 | 0.00 | 78 | 1018.7 |
| 20260506145016 | 59 | 135 | 4.0 | 10.0 | 0.00 | 0.00 | 0.00 | 78 | 1018.6 |
| 20260506144516 | 59 | 113 | 3.0 | 7.0 | 0.00 | 0.00 | 0.00 | 79 | 1018.8 |
| 20260506144016 | 59 | 158 | 4.0 | 9.0 | 0.00 | 0.00 | 0.00 | 79 | 1018.7 |
| 20260506143516 | 58 | 158 | 4.0 | 10.0 | 0.00 | 0.00 | 0.00 | 79 | 1018.7 |
| 20260506143016 | 58 | 158 | 3.0 | 9.0 | 0.00 | 0.00 | 0.00 | 79 | 1018.7 |
| 20260506142516 | 58 | 135 | 4.0 | 11.0 | 0.00 | 0.00 | 0.00 | 79 | 1018.7 |
| 20260506142016 | 59 | 135 | 4.0 | 9.0 | 0.00 | 0.00 | 0.00 | 79 | 1018.7 |
| 20260506141516 | 59 | 135 | 3.0 | 7.0 | 0.00 | 0.00 | 0.00 | 79 | 1018.7 |
| 20260506141016 | 59 | 203 | 4.0 | 11.0 | 0.00 | 0.00 | 0.00 | 80 | 1018.6 |
| 20260506140516 | 59 | 158 | 5.0 | 11.0 | 0.00 | 0.00 | 0.00 | 80 | 1018.6 |
| 20260506140016 | 59 | 113 | 4.0 | 15.0 | 0.00 | 0.00 | 0.00 | 80 | 1018.7 |
| 20260506135516 | 59 | 225 | 5.0 | 13.0 | 0.00 | 0.00 | 0.00 | 81 | 1018.6 |
| 20260506135016 | 59 | 113 | 3.0 | 8.0 | 0.00 | 0.00 | 0.00 | 82 | 1018.5 |
| 20260506134516 | 59 | 113 | 3.0 | 9.0 | 0.00 | 0.00 | 0.00 | 82 | 1018.5 |
| 20260506134017 | 58 | 158 | 3.0 | 10.0 | 0.00 | 0.00 | 0.00 | 83 | 1018.5 |
| 20260506133516 | 58 | 180 | 4.0 | 14.0 | 0.00 | 0.00 | 0.00 | 83 | 1018.5 |
| 20260506133016 | 58 | 158 | 3.0 | 10.0 | 0.00 | 0.00 | 0.00 | 84 | 1018.4 |
| 20260506132516 | 58 | 225 | 3.0 | 13.0 | 0.00 | 0.00 | 0.00 | 84 | 1018.3 |
| 20260506132016 | 57 | 135 | 3.0 | 10.0 | 0.00 | 0.00 | 0.00 | 84 | 1018.2 |
| 20260506131516 | 57 | 135 | 3.0 | 7.0 | 0.00 | 0.00 | 0.00 | 85 | 1018.1 |
| 20260506131016 | 57 | 113 | 3.0 | 14.0 | 0.00 | 0.00 | 0.00 | 85 | 1018.1 |
| 20260506130516 | 56 | 158 | 4.0 | 12.0 | 0.00 | 0.00 | 0.00 | 86 | 1018.1 |
| 20260506130016 | 56 | 158 | 4.0 | 11.0 | 0.00 | 0.00 | 0.00 | 87 | 1018.2 |
| 20260506125516 | 55 | 135 | 1.0 | 4.0 | 0.00 | 0.00 | 0.00 | 88 | 1018.2 |
| 20260506125016 | 55 | 225 | 2.0 | 5.0 | 0.00 | 0.00 | 0.00 | 89 | 1018.3 |
| 20260506124516 | 54 | 135 | 3.0 | 8.0 | 0.00 | 0.00 | 0.00 | 89 | 1018.4 |
| 20260506124016 | 54 | 203 | 2.0 | 6.0 | 0.00 | 0.00 | 0.00 | 90 | 1018.5 |
| 20260506123516 | 53 | 203 | 2.0 | 7.0 | 0.00 | 0.00 | 0.00 | 90 | 1018.7 |
| 20260506123016 | 53 | 113 | 3.0 | 7.0 | 0.00 | 0.00 | 0.00 | 90 | 1018.5 |
| 20260506122516 | 53 | 158 | 2.0 | 11.0 | 0.00 | 0.00 | 0.00 | 90 | 1018.5 |
| 20260506122016 | 52 | 135 | 2.0 | 6.0 | 0.00 | 0.00 | 0.00 | 90 | 1018.5 |
| 20260506121516 | 52 | 225 | 3.0 | 11.0 | 0.00 | 0.00 | 0.00 | 90 | 1018.5 |
| 20260506121016 | 52 | 158 | 2.0 | 7.0 | 0.00 | 0.00 | 0.00 | 90 | 1018.4 |
| 20260506120516 | 52 | 135 | 3.0 | 9.0 | 0.00 | 0.00 | 0.00 | 90 | 1018.4 |
| 20260506120016 | 52 | 158 | 2.0 | 7.0 | 0.00 | 0.00 | 0.00 | 90 | 1018.3 |
| 20260506115516 | 52 | 135 | 3.0 | 9.0 | 0.00 | 0.00 | 0.00 | 89 | 1018.2 |
| 20260506115016 | 52 | 158 | 2.0 | 7.0 | 0.00 | 0.00 | 0.00 | 90 | 1018.2 |
| 20260506114516 | 52 | 135 | 2.0 | 6.0 | 0.00 | 0.00 | 0.00 | 90 | 1018.2 |
| 20260506114016 | 52 | 135 | 3.0 | 6.0 | 0.00 | 0.00 | 0.00 | 90 | 1018.1 |
| 20260506113516 | 51 | 135 | 2.0 | 6.0 | 0.00 | 0.00 | 0.00 | 90 | 1018.2 |
| 20260506113016 | 51 | 135 | 3.0 | 9.0 | 0.00 | 0.00 | 0.00 | 91 | 1018.2 |
| 20260506112516 | 51 | 180 | 4.0 | 18.0 | 0.00 | 0.00 | 0.00 | 90 | 1018.1 |
| 20260506112016 | 51 | 203 | 3.0 | 7.0 | 0.00 | 0.00 | 0.00 | 91 | 1018.2 |
| 20260506111516 | 51 | 225 | 3.0 | 15.0 | 0.00 | 0.00 | 0.00 | 91 | 1018.1 |
| 20260506111016 | 51 | 203 | 4.0 | 12.0 | 0.00 | 0.00 | 0.00 | 91 | 1018.1 |
| 20260506110516 | 51 | 225 | 5.0 | 14.0 | 0.00 | 0.00 | 0.00 | 91 | 1018.2 |
| 20260506110016 | 51 | 225 | 3.0 | 13.0 | 0.00 | 0.00 | 0.00 | 91 | 1018.2 |
| 20260506105516 | 51 | 158 | 4.0 | 11.0 | 0.00 | 0.00 | 0.00 | 91 | 1018.2 |
| 20260506105016 | 50 | 225 | 4.0 | 12.0 | 0.00 | 0.00 | 0.00 | 91 | 1018.1 |
| 20260506104516 | 50 | 158 | 3.0 | 7.0 | 0.00 | 0.00 | 0.00 | 91 | 1018.1 |
| 20260506104016 | 50 | 135 | 3.0 | 11.0 | 0.00 | 0.00 | 0.00 | 91 | 1018.1 |
| 20260506103516 | 50 | 225 | 3.0 | 13.0 | 0.00 | 0.00 | 0.00 | 91 | 1018.0 |
| 20260506103016 | 50 | 158 | 3.0 | 11.0 | 0.00 | 0.00 | 0.00 | 91 | 1018.0 |
| 20260506102516 | 50 | 135 | 3.0 | 11.0 | 0.00 | 0.00 | 0.00 | 91 | 1018.0 |
| 20260506102016 | 50 | 225 | 4.0 | 12.0 | 0.00 | 0.00 | 0.00 | 91 | 1018.0 |
| 20260506101516 | 50 | 158 | 3.0 | 9.0 | 0.00 | 0.00 | 0.00 | 91 | 1018.0 |
| 20260506101016 | 50 | 135 | 2.0 | 7.0 | 0.00 | 0.00 | 0.00 | 91 | 1017.9 |
| 20260506100516 | 50 | 135 | 3.0 | 10.0 | 0.00 | 0.00 | 0.00 | 90 | 1017.8 |
| 20260506100016 | 50 | 225 | 3.0 | 10.0 | 0.00 | 0.00 | 0.00 | 90 | 1017.7 |
| 20260506095516 | 50 | 225 | 3.0 | 11.0 | 0.00 | 0.00 | 0.00 | 90 | 1017.6 |
| 20260506095016 | 50 | 180 | 3.0 | 11.0 | 0.00 | 0.00 | 0.00 | 90 | 1017.6 |
| 20260506094516 | 51 | 225 | 3.0 | 8.0 | 0.00 | 0.00 | 0.00 | 90 | 1017.6 |
| 20260506094016 | 51 | 135 | 2.0 | 8.0 | 0.00 | 0.00 | 0.00 | 90 | 1017.5 |
| 20260506093517 | 51 | 158 | 3.0 | 10.0 | 0.00 | 0.00 | 0.00 | 91 | 1017.5 |
| 20260506093016 | 51 | 225 | 4.0 | 12.0 | 0.00 | 0.00 | 0.00 | 91 | 1017.3 |
| 20260506092516 | 51 | 225 | 4.0 | 12.0 | 0.00 | 0.00 | 0.00 | 91 | 1017.3 |
| 20260506092016 | 51 | 113 | 2.0 | 10.0 | 0.00 | 0.00 | 0.00 | 90 | 1017.4 |
| 20260506091516 | 51 | 203 | 3.0 | 10.0 | 0.00 | 0.00 | 0.00 | 90 | 1017.1 |
| 20260506091016 | 51 | 203 | 4.0 | 11.0 | 0.00 | 0.00 | 0.00 | 90 | 1017.2 |
| 20260506090516 | 51 | 135 | 3.0 | 10.0 | 0.00 | 0.00 | 0.00 | 90 | 1017.1 |
| 20260506090021 | 51 | 135 | 3.0 | 11.0 | 0.00 | 0.00 | 0.00 | 90 | 1017.2 |
| 20260506085516 | 51 | 135 | 2.0 | 8.0 | 0.00 | 0.00 | 0.00 | 90 | 1017.0 |
| 20260506085016 | 51 | 113 | 3.0 | 9.0 | 0.00 | 0.00 | 0.00 | 90 | 1017.1 |
| 20260506084516 | 51 | 158 | 4.0 | 10.0 | 0.00 | 0.00 | 0.00 | 90 | 1016.9 |
| 20260506084016 | 51 | 158 | 2.0 | 7.0 | 0.00 | 0.00 | 0.00 | 91 | 1017.0 |
| 20260506083516 | 51 | 158 | 2.0 | 7.0 | 0.00 | 0.00 | 0.00 | 90 | 1017.0 |
| 20260506083016 | 51 | 203 | 3.0 | 16.0 | 0.00 | 0.00 | 0.00 | 90 | 1017.1 |
| 20260506082516 | 51 | 158 | 1.0 | 9.0 | 0.00 | 0.00 | 0.00 | 90 | 1017.0 |
| 20260506082016 | 51 | 135 | 3.0 | 8.0 | 0.00 | 0.00 | 0.00 | 90 | 1016.9 |
| 20260506081516 | 51 | 225 | 3.0 | 11.0 | 0.00 | 0.00 | 0.00 | 90 | 1016.9 |
| 20260506081016 | 51 | 225 | 2.0 | 7.0 | 0.00 | 0.00 | 0.00 | 90 | 1017.0 |
| 20260506080516 | 51 | 135 | 3.0 | 11.0 | 0.00 | 0.00 | 0.00 | 90 | 1017.0 |
| 20260506073517 | 51 | 135 | 3.0 | 11.0 | 0.00 | 0.00 | 0.00 | 90 | 1017.1 |
| 20260506073017 | 51 | 180 | 3.0 | 12.0 | 0.00 | 0.00 | 0.00 | 90 | 1017.0 |
| 20260506072517 | 51 | 135 | 3.0 | 10.0 | 0.00 | 0.00 | 0.00 | 90 | 1017.0 |
| 20260506072016 | 51 | 225 | 4.0 | 12.0 | 0.00 | 0.00 | 0.00 | 90 | 1017.0 |
| 20260506071516 | 51 | 225 | 3.0 | 9.0 | 0.00 | 0.00 | 0.00 | 90 | 1017.0 |
| 20260506071016 | 51 | 225 | 3.0 | 10.0 | 0.00 | 0.00 | 0.00 | 90 | 1016.9 |
| 20260506070516 | 51 | 135 | 2.0 | 10.0 | 0.00 | 0.00 | 0.00 | 90 | 1016.9 |
| 20260506062516 | 51 | 158 | 3.0 | 7.0 | 0.00 | 0.00 | 0.00 | 90 | 1016.8 |
| 20260506062016 | 51 | 135 | 2.0 | 7.0 | 0.00 | 0.00 | 0.00 | 90 | 1016.8 |
| 20260506061516 | 51 | 135 | 2.0 | 8.0 | 0.00 | 0.00 | 0.00 | 90 | 1016.8 |
| 20260506061016 | 51 | 135 | 3.0 | 10.0 | 0.00 | 0.00 | 0.00 | 90 | 1016.8 |
| 20260506060516 | 51 | 158 | 4.0 | 11.0 | 0.00 | 0.00 | 0.00 | 90 | 1016.8 |
| 20260506051016 | 51 | 158 | 3.0 | 8.0 | 0.00 | 0.00 | 0.00 | 90 | 1016.8 |
| 20260506050516 | 51 | 135 | 3.0 | 10.0 | 0.00 | 0.00 | 0.00 | 90 | 1016.9 |
| 20260506045016 | 51 | 135 | 3.0 | 8.0 | 0.00 | 0.00 | 0.00 | 90 | 1016.8 |
| 20260506044516 | 51 | 135 | 2.0 | 11.0 | 0.00 | 0.00 | 0.00 | 89 | 1017.0 |
| 20260506044016 | 51 | 135 | 2.0 | 7.0 | 0.00 | 0.00 | 0.00 | 89 | 1016.8 |
| 20260506043516 | 51 | 158 | 2.0 | 6.0 | 0.00 | 0.00 | 0.00 | 89 | 1016.7 |
| 20260506043016 | 51 | 158 | 2.0 | 6.0 | 0.00 | 0.00 | 0.00 | 89 | 1016.6 |
| 20260506042516 | 51 | 158 | 2.0 | 5.0 | 0.00 | 0.00 | 0.00 | 89 | 1016.7 |
| 20260506042016 | 51 | 135 | 2.0 | 5.0 | 0.00 | 0.00 | 0.00 | 89 | 1016.6 |
| 20260506041516 | 50 | 135 | 3.0 | 11.0 | 0.00 | 0.00 | 0.00 | 89 | 1016.7 |
| 20260506041016 | 50 | 158 | 2.0 | 7.0 | 0.00 | 0.00 | 0.00 | 89 | 1016.8 |
| 20260506040516 | 50 | 135 | 2.0 | 9.0 | 0.00 | 0.00 | 0.00 | 89 | 1016.7 |
| 20260506040016 | 50 | 135 | 3.0 | 7.0 | 0.00 | 0.00 | 0.00 | 89 | 1016.7 |
| 20260506035516 | 50 | 158 | 3.0 | 9.0 | 0.00 | 0.00 | 0.00 | 89 | 1016.6 |
| 20260506035016 | 51 | 135 | 2.0 | 6.0 | 0.00 | 0.00 | 0.00 | 89 | 1016.6 |
| 20260506034516 | 51 | 158 | 3.0 | 8.0 | 0.00 | 0.00 | 0.00 | 89 | 1016.7 |
| 20260506034016 | 51 | 158 | 3.0 | 6.0 | 0.00 | 0.00 | 0.00 | 89 | 1016.8 |
| 20260506033516 | 51 | 135 | 3.0 | 8.0 | 0.00 | 0.00 | 0.00 | 89 | 1016.8 |
| 20260506033016 | 51 | 158 | 3.0 | 12.0 | 0.00 | 0.00 | 0.00 | 89 | 1016.8 |
| 20260506032516 | 51 | 158 | 3.0 | 16.0 | 0.00 | 0.00 | 0.00 | 89 | 1016.7 |
| 20260506032016 | 51 | 158 | 2.0 | 12.0 | 0.00 | 0.00 | 0.00 | 89 | 1016.6 |
| 20260506031516 | 51 | 135 | 2.0 | 10.0 | 0.00 | 0.00 | 0.00 | 89 | 1016.6 |
| 20260506031016 | 51 | 158 | 3.0 | 10.0 | 0.00 | 0.00 | 0.00 | 90 | 1016.6 |
| 20260506030516 | 51 | 158 | 3.0 | 7.0 | 0.00 | 0.00 | 0.00 | 90 | 1016.6 |
| 20260506030016 | 50 | 135 | 2.0 | 8.0 | 0.00 | 0.00 | 0.00 | 89 | 1016.7 |
| 20260506025516 | 50 | 158 | 2.0 | 6.0 | 0.00 | 0.00 | 0.00 | 89 | 1016.6 |
| 20260506025016 | 50 | 158 | 2.0 | 6.0 | 0.00 | 0.00 | 0.00 | 89 | 1016.6 |
| 20260506024517 | 50 | 158 | 2.0 | 7.0 | 0.00 | 0.00 | 0.00 | 89 | 1016.6 |
| 20260506024016 | 50 | 158 | 2.0 | 13.0 | 0.00 | 0.00 | 0.00 | 89 | 1016.5 |
| 20260506023516 | 50 | 135 | 3.0 | 7.0 | 0.00 | 0.00 | 0.00 | 89 | 1016.6 |
| 20260506023016 | 50 | 135 | 2.0 | 6.0 | 0.00 | 0.00 | 0.00 | 89 | 1016.6 |
| 20260506022517 | 51 | 135 | 2.0 | 6.0 | 0.00 | 0.00 | 0.00 | 89 | 1016.6 |
| 20260506022016 | 51 | 135 | 2.0 | 9.0 | 0.00 | 0.00 | 0.00 | 89 | 1016.6 |
| 20260506021516 | 51 | 158 | 3.0 | 12.0 | 0.00 | 0.00 | 0.00 | 89 | 1016.6 |
| 20260506021017 | 51 | 158 | 3.0 | 10.0 | 0.00 | 0.00 | 0.00 | 89 | 1016.6 |
| 20260506020516 | 51 | 203 | 3.0 | 8.0 | 0.00 | 0.00 | 0.00 | 88 | 1016.5 |
| 20260506020016 | 51 | 135 | 3.0 | 9.0 | 0.00 | 0.00 | 0.00 | 88 | 1016.6 |
| 20260506015516 | 51 | 203 | 2.0 | 10.0 | 0.00 | 0.00 | 0.00 | 88 | 1016.8 |
| 20260506015017 | 51 | 180 | 3.0 | 12.0 | 0.00 | 0.00 | 0.00 | 88 | 1016.6 |
| 20260506014516 | 51 | 135 | 3.0 | 11.0 | 0.00 | 0.00 | 0.00 | 88 | 1016.6 |
| 20260506014016 | 52 | 203 | 2.0 | 8.0 | 0.00 | 0.00 | 0.00 | 88 | 1016.7 |
| 20260506013516 | 52 | 135 | 3.0 | 10.0 | 0.00 | 0.00 | 0.00 | 88 | 1016.7 |
| 20260506013016 | 52 | 158 | 3.0 | 11.0 | 0.00 | 0.00 | 0.00 | 88 | 1016.6 |
| 20260506012516 | 52 | 135 | 2.0 | 7.0 | 0.00 | 0.00 | 0.00 | 88 | 1016.6 |
| 20260506012016 | 52 | 135 | 3.0 | 13.0 | 0.00 | 0.00 | 0.00 | 89 | 1016.6 |
| 20260506011517 | 52 | 203 | 3.0 | 9.0 | 0.00 | 0.00 | 0.00 | 89 | 1016.5 |
| 20260506011017 | 52 | 135 | 3.0 | 10.0 | 0.00 | 0.00 | 0.00 | 89 | 1016.4 |
| 20260506010516 | 51 | 225 | 2.0 | 9.0 | 0.00 | 0.00 | 0.00 | 88 | 1016.4 |
| 20260506010017 | 51 | 135 | 2.0 | 4.0 | 0.00 | 0.00 | 0.00 | 88 | 1016.3 |
| 20260506005516 | 51 | 135 | 3.0 | 10.0 | 0.00 | 0.00 | 0.00 | 89 | 1016.1 |
| 20260506005016 | 51 | 158 | 2.0 | 7.0 | 0.00 | 0.00 | 0.00 | 88 | 1016.0 |
| 20260506004516 | 52 | 135 | 3.0 | 11.0 | 0.00 | 0.00 | 0.00 | 88 | 1016.0 |
| 20260506004017 | 52 | 203 | 4.0 | 11.0 | 0.00 | 0.00 | 0.00 | 88 | 1016.0 |